Location: Chenango Forks
(42.2242°N, 75.8278°W)
Time: 08:59:31
(UTC-05:00)

Daily predictions for brighter satellites

Satellite Brightness Start Highest point End
(mag) Time Altitude Azimuth Time Altitude Azimuth Time Altitude Azimuth
Cosmos 2082 Rocket 3.5 16:59:37 10° N 17:03:36 19° NE 17:07:34 10° E
Cosmos 332 Rocket 4.3 16:59:40 10° NNW 17:04:31 70° WSW 17:09:22 10° S
CSL-04 Rocket 3.6 17:01:31 10° SSE 17:06:44 63° ENE 17:12:01 10° N
ERBS 2.5 17:03:46 10° NW 17:07:06 52° NE 17:10:26 10° ESE
Cosmos 468 Rocket 3.9 17:03:22 10° NNW 17:08:34 71° ENE 17:13:40 10° SSE
Meteor 2-10 Rocket 3.8 17:04:41 10° SSW 17:09:53 77° W 17:15:20 10° N
MSX 4.2 17:06:22 10° S 17:12:07 72° WSW 17:17:55 10° NNW
Cosmos 972 Rocket 3.8 17:10:12 10° NNW 17:15:08 73° ENE 17:20:03 10° SSE
Cosmos 1340 2.8 17:13:52 10° SSW 17:17:37 78° W 17:21:25 10° N
ALOS 3.6 17:14:42 10° ESE 17:17:46 18° ENE 17:20:50 10° NNE
GENESIS II 4.2 17:14:09 10° NNW 17:18:04 64° NE 17:21:55 10° SE
USA 161 3.8 17:24:58 10° NW 17:26:04 14° WNW 17:27:12 10° WSW
SMAP 3.0 17:22:05 10° SSE 17:26:43 76° ENE 17:31:23 10° N
Cosmos 2233 Rocket 4.0 17:22:21 10° S 17:28:30 64° E 17:34:39 10° NNE
Cosmos 1763 Rocket 3.5 17:23:31 10° NNW 17:28:42 63° ENE 17:33:47 10° SSE
Cosmos 1908 Rocket 3.9 17:25:37 10° N 17:29:45 41° ENE 17:33:50 10° SSE
SKYMED 2 4.5 17:26:52 10° NE 17:30:37 28° E 17:34:21 10° SSE
ERS-2 2.8 17:27:50 10° SE 17:31:07 32° ENE 17:34:26 10° N
Cosmos 1733 Rocket 3.3 17:27:40 10° N 17:32:07 76° W 17:36:33 10° S
Cosmos 972 4.4 17:28:58 10° N 17:33:56 55° ENE 17:38:42 10° SSE
Cosmos 1844 Rocket 3.6 17:28:58 10° SW 17:34:26 50° WNW 17:39:55 10° NNE
AQUARIUS 4.2 17:30:35 10° SSE 17:35:04 89° ESE 17:39:36 10° NNW
Cosmos 2242 Rocket 4.2 17:31:39 10° SSW 17:36:10 62° W 17:40:40 10° N
COSMOS 2406 4.2 17:32:35 10° NNW 17:38:08 52° WSW 17:43:38 10° S
CZ-2C R/B 4.5 17:35:09 10° SSW 17:39:36 32° W 17:44:11 10° NNW
Cosmos 1814 Rocket 4.0 17:35:07 10° NNW 17:40:31 88° ENE 17:45:53 10° SSE
Sich 1 Rocket 3.8 17:37:29 10° N 17:41:46 46° ENE 17:46:02 10° SSE
Cosmos 1862 Rocket 4.0 17:38:44 10° SSW 17:43:07 68° W 17:47:35 10° N
Meteor 1-14 Rocket 4.1 17:37:44 10° N 17:43:26 76° E 17:49:00 10° SSE
CZ-4C R/B 3.7 17:40:23 10° NNW 17:46:12 28° NE 17:50:24 17° E
SL-27 R/B 2.7 17:44:35 10° N 17:47:46 40° ENE 17:50:57 10° SE
IRS-1A Rocket 4.3 17:44:33 10° SSE 17:50:23 85° ENE 17:56:08 10° NNW
Ariane Rocket 3.9 17:49:31 10° S 17:54:29 53° W 17:59:28 10° NNW
FENGYUN 3A 4.0 17:49:52 10° SE 17:54:55 41° ENE 17:59:57 10° N
USA 234 3.5 17:52:30 17° ENE 17:57:28 54° SE 18:03:49 10° SSW
Cosmos 540 Rocket 3.7 17:53:15 10° N 17:58:14 44° ENE 18:03:08 10° SE
COSMOS 2455 3.4 17:53:32 10° SW 17:59:26 57° NW 18:05:23 10° NNE
Meteor 1-11 Rocket 4.4 17:56:57 10° N 18:02:07 31° ENE 18:07:10 10° SE
Okean 1-7 3.2 17:58:00 10° SSE 18:02:12 49° E 18:06:16 11° NNE
Cosmos 1833 Rocket 2.8 17:56:55 10° NNW 18:02:22 49° ENE 18:07:47 10° SE
CZ-4 R/B 4.4 17:58:36 10° SSE 18:02:45 90° WSW 18:06:57 10° NNW
Cosmos 2297 4.0 17:57:39 10° S 18:03:01 44° ESE 18:06:35 20° NE
Cosmos 841 Rocket 3.5 17:58:01 10° NNW 18:03:20 87° WSW 18:08:35 10° SSE
Cosmos 1633 2.5 18:00:49 10° N 18:04:27 62° E 18:08:05 10° SSE
MTI 3.7 18:02:52 13° NNE 18:05:40 87° WNW 18:08:54 10° SSW
CZ-4 R/B 2.4 18:03:54 10° S 18:07:38 46° W 18:11:22 10° NNW
Cosmos 2278 Rocket 2.4 18:03:09 10° SSW 18:08:49 71° WNW 18:14:30 10° NNE
Lacrosse 5 3.9 18:05:44 10° NW 18:09:05 17° NNW 18:11:48 12° NNE
Cosmos 1486 Rocket 4.1 18:04:57 10° SSW 18:10:10 77° WNW 18:15:26 10° NNE
Cosmos 44 Rocket 3.9 18:07:57 10° NNW 18:12:25 34° NE 18:13:11 33° ENE
Cosmos 1782 Rocket 3.4 18:09:51 10° N 18:14:13 74° E 18:18:33 10° SSE
MOS 1 4.2 18:09:21 10° SSE 18:15:04 88° ENE 18:20:49 10° NNW
COSMO-SKYMED 1 2.5 18:14:29 10° NNE 18:18:51 87° WNW 18:23:10 10° SSW
YAOGAN 1 3.4 18:15:57 10° S 18:20:10 53° W 18:24:26 10° NNW
Cosmos 1072 Rocket 4.4 18:16:36 10° S 18:22:48 80° E 18:29:08 10° N
SPOT 3 Rocket 3.5 18:19:27 10° SSE 18:24:42 88° ENE 18:29:56 10° NNW
Cosmos 292 Rocket 3.9 18:21:20 10° N 18:25:56 48° ENE 18:26:26 46° E
Cosmos 1354 Rocket 3.9 18:21:17 10° SSW 18:26:33 77° ESE 18:29:47 24° NNE
Nadezhda 4 Rocket 4.2 18:21:18 10° N 18:27:07 44° ENE 18:32:55 10° SSE
BREEZE-M DEB (TANK) 2.3 18:26:00 10° WSW 18:27:47 62° WSW 18:27:47 62° WSW
Cosmos 1606 3.2 18:25:11 10° SSW 18:28:54 59° W 18:32:00 14° N
Cosmos 2034 Rocket 4.0 18:23:06 10° S 18:29:20 61° E 18:35:36 10° NNE
Cosmos 2221 Rocket 3.5 18:28:33 10° S 18:32:57 83° W 18:36:18 18° N
EO 1 Del DPAF 3.8 18:30:33 15° N 18:33:31 55° WNW 18:37:15 10° SSW
NOAA 12 4.2 18:34:27 10° S 18:39:47 79° WSW 18:45:07 10° NNW
Meteor 2-6 Rocket 4.1 18:35:38 10° SSW 18:41:04 82° W 18:46:40 10° N
CENTAUR R/B 4.2 18:37:22 10° W 18:42:42 27° NNW 18:48:01 12° NNE
Cosmos 44 3.1 18:40:42 10° NNW 18:45:15 68° NE 18:45:15 68° NE
Cosmos 1782 4.1 18:41:39 10° SSW 18:45:27 40° WNW 18:49:00 12° N
Cosmos 2082 Rocket 2.3 18:42:38 10° NNW 18:48:20 75° WSW 18:53:57 10° SSE
Meteor 2-20 4.3 18:45:46 10° N 18:51:52 85° E 18:57:56 10° S
Okean 2 Rocket 3.4 18:48:45 10° NNW 18:53:15 65° W 18:57:43 10° S
ALOS 3.0 18:50:14 10° S 18:54:47 52° W 18:59:22 10° NNW
Thor Agena Rocket 3.8 18:59:06 52° SSE 18:59:06 52° SSE 19:03:04 10° S
Cosmos 1464 Rocket 4.4 18:52:15 10° SSW 18:58:16 60° W 19:04:22 10° N
FengYun 1-2 T 4.0 18:55:41 27° SSE 18:58:48 82° ENE 19:04:23 10° NNW
Cosmos 405 Rocket 3.9 18:56:18 10° SSW 18:58:57 39° SW 18:58:57 39° SW
Meteor 1-27 Rocket 3.9 19:01:59 10° SSW 19:07:52 79° W 19:11:10 28° N
CZ-4C R/B 2.8 19:28:23 10° NW 19:35:38 89° SW 19:35:39 89° SW
USA 234 3.7 19:39:51 50° NNW 19:40:26 51° NNW 19:46:42 10° WSW
